Погода в Новом Бирюзяке

Россия / Республика Дагестан     43°46′14″N   47°18′34″E
темп.,
°C
ветер,
м/с
пор.,
м/с
влажн.,
%
обл.,
%
осадки,
мм/ч
давл.,
гПа
погр.,
м
10 мая, пн
пн1000:00+9з121885100 0.6 10181245
03:00+9з101683100 1.4 10191211
06:00+9зсз101682100 1.9 10191352
09:00+11зсз8126794 2.9 10201607
12:00+17зсз9123650 0.1 10192542
15:00+18зсз783093 0.1 10182728
18:00+15зюз474296 0.0 1019236
21:00+10юз49596 0.0 1020149
11 мая, вт
вт1100:00+9з386789 0.0 1020162
03:00+8ююз11735 0.0 102010
06:00+10в35645 0.0 1020145
09:00+17вюв79425 0.0 10191910
12:00+18вюв810412 0.0 10181830
15:00+17вюв911450 0.0 10181484
18:00+15вюв586179 0.0 1018844
21:00+11юв23775 0.0 101824
12 мая, ср
ср1200:00+11ююв2275100 0.0 101714
03:00+10вюв11810 0.0 101610
06:00+13в11720 0.0 101674
09:00+18в22540 0.0 10161177
12:00+22в334733 0.0 10161619
15:00+20в435436 0.0 10161206
18:00+18юв44560 0.0 1016227
21:00+13юв34720 0.0 101647
13 мая, чт
чт1300:00+12юв22845 0.0 101614
03:00+12в22881 0.0 101512
06:00+14в23800 0.0 1016124
09:00+20в22550 0.0 1016754
12:00+24в43445 0.0 10151001
15:00+23вюв54440 0.0 1015770
18:00+18вюв45620 0.0 1015324
21:00+14вюв33855 0.0 101644
14 мая, пт
пт1400:00+13вюв33850 0.0 101529
03:00+14вюв35870 0.0 101571
06:00+16вюв38810 0.0 1015238
09:00+22юв711560 0.0 1015482
12:00+24юв814480 0.0 1015536
15:00+24юв916470 0.0 1014528
18:00+20вюв817590 0.0 1014367
21:00+19вюв617520 0.0 1014296